Regional Weather Roundup
Issued by NWS Kansas City/Pleasant Hill, MO

Home | Current Version | Previous Version | Text Only | Print | Product List | Glossary On
Versions: 1 2 3 4 5 6 7 8 9 10 11 12 13 14 15 16 17 18 19 20 21 22 23 24 25 26 27 28 29 30 31 32 33 34 35 36 37 38 39 40 41 42 43 44 45 46 47 48 49 50
181
ASUS43 KEAX 242210
RWREAX

WEATHER ROUNDUP FOR EASTERN KANSAS AND NORTHWEST MISSOURI
NATIONAL WEATHER SERVICE KANSAS CITY/PLEASANT HILL MO
400 PM CST TUE JAN 24 2017

KSZ040-057-103>105-MOZ028-029-037-043-242300-
...KANSAS CITY METROPOLITAN AREA...

CITY           SKY/WX    TMP DP  RH WIND       PRES   REMARKS
K.C. INTL      SUNNY     50  37  61 E14       29.44R
K.C. DOWNTOWN  SUNNY     54  39  57 E10       29.41F
LEES SUMMIT    SUNNY     55  40  56 SE13      29.42F
OLATHE - IXD   SUNNY     57  42  57 SE16      29.40F
OLATHE - OJC   SUNNY     56  40  55 SE13G23   29.40F
LAWRENCE       SUNNY     57  41  55 E9        29.41R

$$

MOZ001>008-011>017-020>025-030>033-038>040-044>046-053-054-242300-
...NORTHERN AND CENTRAL MISSOURI...

CITY           SKY/WX    TMP DP  RH WIND       PRES   REMARKS
ST. JOSEPH     SUNNY     47  38  71 E10       29.48R
MOSBY          CLEAR     50  37  62 E14G22    29.44F
WARRENSBURG    SUNNY     55  37  50 E9G16     29.44F
WHITEMAN AFB   MOSUNNY   57  41  55 SE12      29.44F
CLINTON        SUNNY     63  41  45 SE10      29.44F
SEDALIA        SUNNY     56  39  53 SE21      29.48F
WARSAW         NOT AVBL
CHILLICOTHE      N/A     45  37  73 E14G24    29.51F
KIRKSVILLE     MOSUNNY   39  33  79 E18       29.58F WCI  30

$$

MOZ041-047>049-056>058-063>065-088>090-097-242300-
...EASTERN AND SOUTHERN MISSOURI...

CITY           SKY/WX    TMP DP  RH WIND       PRES   REMARKS
ST. LOUIS INTL CLOUDY    50  34  54 SE26      29.69F
SPIRIT OF STL  PTSUNNY   49  37  63 E12G18    29.67F
COLUMBIA       CLOUDY    52  38  58 SE12      29.55F
JEFFERSON CITY MOSUNNY   55  37  50 SE14      29.55F
ROLLA          LGT RAIN  56  37  49 SE20G28   29.55F
OSAGE BEACH    SUNNY     61  39  44 SE13G21   29.53F
SPRINGFIELD    SUNNY     69  36  29 S24G32    29.49F
BRANSON        PTSUNNY   66  37  34 S17G25    29.57S
JOPLIN         SUNNY     69  39  33 S23G30    29.45F
WEST PLAINS    SUNNY     57  39  51 SE16G28   29.64F

$$

IAZ060-094-KSZ022-034>040-054-083-096-NEZ052-066-093-242300-
...KANSAS...SOUTHEAST NEBRASKA AND IOWA...

CITY           SKY/WX    TMP DP  RH WIND       PRES   REMARKS
TOPEKA         SUNNY     55  41  59 NE12      29.39F
MANHATTAN      SUNNY     63  40  42 SW12      29.36S
EMPORIA        SUNNY     67  38  34 SW22G30   29.37R
CHANUTE        SUNNY     67  42  40 S16G26    29.40S
WICHITA        MOSUNNY   64  39  39 NW25G31   29.39R
OMAHA          FLURRIES  36  28  73 E16       29.54F WCI  26
LINCOLN        CLOUDY    35  30  82 E10       29.53R WCI  27
FALLS CITY     CLOUDY    41  35  79 E13       29.46F WCI  34
LAMONI         PTSUNNY   38  31  76 E12       29.53F WCI  30
DES MOINES     CLOUDY    33  30  88 E12G17    29.63S WCI  24

$$





USA.gov is the U.S. government's official web portal to all federal, state and local government web resources and services.